contact:dominique.lefevre@mio.osupytheas.fr, maurice.libes@osupytheas.fr, didier.mallarino@osupytheas.fr
Project:EMSO http://www.emso-fr.org/EMSO-France
Depth: 2436.0 m
Title:EMSO Ligure Ouest : Data MII capteur MICROCAT
DateTime_Computer,Latitude,Longitude,Temperature,Conductivity,Pressure,DateTime_Instrument
DateTime_Computer,Latitude,Longitude,degC,S m-1,dbar,DateTime_Instrument
2021-07-11T00:00:15Z,42.805,6.029,13.3014,4.60069,2470.334,2021-7-11T02:01:31Z
2021-07-11T00:03:18Z,42.805,6.029,13.3023,4.60086,2470.357,2021-7-11T02:04:34Z
2021-07-11T00:06:21Z,42.805,6.029,13.3000,4.60081,2470.297,2021-7-11T02:07:37Z
2021-07-11T00:09:25Z,42.805,6.029,13.3009,4.60066,2470.343,2021-7-11T02:10:40Z
2021-07-11T00:12:28Z,42.805,6.029,13.2996,4.60086,2470.31,2021-7-11T02:13:43Z
2021-07-11T00:15:31Z,42.805,6.029,13.2990,4.60089,2470.31,2021-7-11T02:16:46Z
2021-07-11T00:18:34Z,42.805,6.029,13.2998,4.60093,2470.297,2021-7-11T02:19:50Z
2021-07-11T00:21:37Z,42.805,6.029,13.3003,4.60105,2470.297,2021-7-11T02:22:53Z
2021-07-11T00:24:40Z,42.805,6.029,13.3003,4.60087,2470.32,2021-7-11T02:25:56Z
2021-07-11T00:27:43Z,42.805,6.029,13.2994,4.60090,2470.32,2021-7-11T02:28:59Z
2021-07-11T00:30:46Z,42.805,6.029,13.2998,4.60111,2470.297,2021-7-11T02:32:02Z
2021-07-11T00:33:50Z,42.805,6.029,13.2991,4.60115,2470.273,2021-7-11T02:35:05Z
2021-07-11T00:36:53Z,42.805,6.029,13.2993,4.60123,2470.273,2021-7-11T02:38:08Z
2021-07-11T00:39:56Z,42.805,6.029,13.2994,4.60140,2470.273,2021-7-11T02:41:11Z
2021-07-11T00:42:59Z,42.805,6.029,13.2994,4.60117,2470.31,2021-7-11T02:44:15Z
2021-07-11T00:46:02Z,42.805,6.029,13.2991,4.60104,2470.31,2021-7-11T02:47:18Z
2021-07-11T00:49:05Z,42.805,6.029,13.2990,4.60110,2470.297,2021-7-11T02:50:21Z
2021-07-11T00:52:08Z,42.805,6.029,13.2993,4.60075,2470.297,2021-7-11T02:53:24Z
2021-07-11T00:55:11Z,42.805,6.029,13.2993,4.60091,2470.297,2021-7-11T02:56:27Z
2021-07-11T00:58:15Z,42.805,6.029,13.2993,4.60079,2470.297,2021-7-11T02:59:30Z
2021-07-11T01:01:18Z,42.805,6.029,13.2991,4.60072,2470.31,2021-7-11T03:02:33Z
2021-07-11T01:04:21Z,42.805,6.029,13.2994,4.60031,2470.287,2021-7-11T03:05:36Z
2021-07-11T01:07:24Z,42.805,6.029,13.2996,4.60110,2470.31,2021-7-11T03:08:40Z
2021-07-11T01:10:27Z,42.805,6.029,13.2994,4.60127,2470.273,2021-7-11T03:11:43Z
2021-07-11T01:13:30Z,42.805,6.029,13.2993,4.60071,2470.297,2021-7-11T03:14:46Z
2021-07-11T01:16:33Z,42.805,6.029,13.2992,4.60108,2470.287,2021-7-11T03:17:49Z
2021-07-11T01:19:36Z,42.805,6.029,13.2988,4.60105,2470.25,2021-7-11T03:20:52Z
2021-07-11T01:22:40Z,42.805,6.029,13.2994,4.60099,2470.287,2021-7-11T03:23:55Z
2021-07-11T01:25:43Z,42.805,6.029,13.2990,4.60052,2470.287,2021-7-11T03:26:58Z
2021-07-11T01:28:46Z,42.805,6.029,13.2992,4.60062,2470.31,2021-7-11T03:30:01Z
2021-07-11T01:31:49Z,42.805,6.029,13.2990,4.60076,2470.25,2021-7-11T03:33:05Z
2021-07-11T01:34:52Z,42.805,6.029,13.2991,4.60042,2470.264,2021-7-11T03:36:08Z
2021-07-11T01:37:55Z,42.805,6.029,13.2994,4.60031,2470.273,2021-7-11T03:39:11Z
2021-07-11T01:40:58Z,42.805,6.029,13.2995,4.60053,2470.264,2021-7-11T03:42:14Z
2021-07-11T01:44:01Z,42.805,6.029,13.2989,4.60062,2470.25,2021-7-11T03:45:17Z
2021-07-11T01:47:05Z,42.805,6.029,13.2992,4.60062,2470.227,2021-7-11T03:48:20Z
2021-07-11T01:50:08Z,42.805,6.029,13.2991,4.60046,2470.264,2021-7-11T03:51:23Z
2021-07-11T01:53:11Z,42.805,6.029,13.2988,4.60043,2470.227,2021-7-11T03:54:26Z
2021-07-11T01:56:14Z,42.805,6.029,13.2991,4.60041,2470.25,2021-7-11T03:57:30Z
2021-07-11T01:59:17Z,42.805,6.029,13.2989,4.60029,2470.24,2021-7-11T04:00:33Z
2021-07-11T02:02:20Z,42.805,6.029,13.2991,4.60031,2470.25,2021-7-11T04:03:36Z
2021-07-11T02:05:23Z,42.805,6.029,13.2990,4.60026,2470.25,2021-7-11T04:06:39Z
2021-07-11T02:08:26Z,42.805,6.029,13.2990,4.60026,2470.227,2021-7-11T04:09:42Z
2021-07-11T02:11:29Z,42.805,6.029,13.2990,4.60021,2470.25,2021-7-11T04:12:45Z
2021-07-11T02:14:33Z,42.805,6.029,13.2991,4.60024,2470.264,2021-7-11T04:15:48Z
2021-07-11T02:17:36Z,42.805,6.029,13.2990,4.60022,2470.25,2021-7-11T04:18:51Z
2021-07-11T02:20:39Z,42.805,6.029,13.2992,4.60023,2470.227,2021-7-11T04:21:54Z
2021-07-11T02:23:42Z,42.805,6.029,13.2993,4.60026,2470.273,2021-7-11T04:24:58Z
2021-07-11T02:26:45Z,42.805,6.029,13.2988,4.60020,2470.227,2021-7-11T04:28:01Z
2021-07-11T02:29:48Z,42.805,6.029,13.2990,4.60023,2470.227,2021-7-11T04:31:04Z
2021-07-11T02:32:51Z,42.805,6.029,13.2990,4.60032,2470.25,2021-7-11T04:34:07Z
2021-07-11T02:35:54Z,42.805,6.029,13.2991,4.60052,2470.227,2021-7-11T04:37:10Z
2021-07-11T02:38:58Z,42.805,6.029,13.2991,4.60028,2470.24,2021-7-11T04:40:13Z
2021-07-11T02:42:01Z,42.805,6.029,13.2991,4.60029,2470.227,2021-7-11T04:43:16Z
2021-07-11T02:45:04Z,42.805,6.029,13.2996,4.60031,2470.227,2021-7-11T04:46:19Z
2021-07-11T02:48:07Z,42.805,6.029,13.2993,4.60032,2470.227,2021-7-11T04:49:23Z
2021-07-11T02:51:10Z,42.805,6.029,13.2993,4.60027,2470.227,2021-7-11T04:52:26Z
2021-07-11T02:54:13Z,42.805,6.029,13.2991,4.60036,2470.24,2021-7-11T04:55:29Z
2021-07-11T02:57:16Z,42.805,6.029,13.2992,4.60028,2470.227,2021-7-11T04:58:32Z
2021-07-11T03:00:19Z,42.805,6.029,13.2990,4.60032,2470.217,2021-7-11T05:01:35Z
2021-07-11T03:03:23Z,42.805,6.029,13.2994,4.60032,2470.264,2021-7-11T05:04:38Z
2021-07-11T03:06:26Z,42.805,6.029,13.2990,4.60026,2470.203,2021-7-11T05:07:41Z
2021-07-11T03:09:29Z,42.805,6.029,13.2990,4.60026,2470.24,2021-7-11T05:10:44Z
2021-07-11T03:12:32Z,42.805,6.029,13.2987,4.60023,2470.227,2021-7-11T05:13:48Z
2021-07-11T03:15:35Z,42.805,6.029,13.2991,4.60024,2470.24,2021-7-11T05:16:51Z
2021-07-11T03:18:38Z,42.805,6.029,13.2993,4.60026,2470.227,2021-7-11T05:19:54Z
2021-07-11T03:21:41Z,42.805,6.029,13.2990,4.60031,2470.227,2021-7-11T05:22:57Z
2021-07-11T03:24:44Z,42.805,6.029,13.2991,4.60016,2470.227,2021-7-11T05:26:00Z
2021-07-11T03:27:48Z,42.805,6.029,13.2991,4.60019,2470.24,2021-7-11T05:29:03Z
2021-07-11T03:30:51Z,42.805,6.029,13.2991,4.60026,2470.203,2021-7-11T05:32:06Z
2021-07-11T03:33:54Z,42.805,6.029,13.2991,4.60026,2470.25,2021-7-11T05:35:09Z
2021-07-11T03:36:57Z,42.805,6.029,13.2990,4.60023,2470.203,2021-7-11T05:38:13Z
2021-07-11T03:40:00Z,42.805,6.029,13.2993,4.60026,2470.227,2021-7-11T05:41:16Z
2021-07-11T03:43:03Z,42.805,6.029,13.2994,4.60031,2470.227,2021-7-11T05:44:19Z
2021-07-11T03:46:06Z,42.805,6.029,13.2991,4.60028,2470.25,2021-7-11T05:47:22Z
2021-07-11T03:49:09Z,42.805,6.029,13.2988,4.60027,2470.203,2021-7-11T05:50:25Z
2021-07-11T03:52:13Z,42.805,6.029,13.2991,4.60026,2470.25,2021-7-11T05:53:28Z
2021-07-11T03:55:16Z,42.805,6.029,13.2986,4.60029,2470.264,2021-7-11T05:56:31Z
2021-07-11T03:58:19Z,42.805,6.029,13.2990,4.60021,2470.227,2021-7-11T05:59:34Z
2021-07-11T04:01:22Z,42.805,6.029,13.2992,4.60029,2470.25,2021-7-11T06:02:38Z
2021-07-11T04:04:25Z,42.805,6.029,13.2991,4.60030,2470.273,2021-7-11T06:05:41Z
2021-07-11T04:07:28Z,42.805,6.029,13.2993,4.60026,2470.227,2021-7-11T06:08:44Z
2021-07-11T04:10:31Z,42.805,6.029,13.2991,4.60034,2470.264,2021-7-11T06:11:47Z
2021-07-11T04:13:34Z,42.805,6.029,13.2992,4.60033,2470.203,2021-7-11T06:14:50Z
2021-07-11T04:16:38Z,42.805,6.029,13.2992,4.60028,2470.287,2021-7-11T06:17:53Z
2021-07-11T04:19:41Z,42.805,6.029,13.2988,4.60033,2470.25,2021-7-11T06:20:56Z
2021-07-11T04:22:44Z,42.805,6.029,13.2989,4.60044,2470.217,2021-7-11T06:23:59Z
2021-07-11T04:25:47Z,42.805,6.029,13.2990,4.60033,2470.25,2021-7-11T06:27:03Z
2021-07-11T04:28:50Z,42.805,6.029,13.2991,4.60038,2470.273,2021-7-11T06:30:06Z
2021-07-11T04:31:53Z,42.805,6.029,13.2993,4.60038,2470.273,2021-7-11T06:33:09Z
2021-07-11T04:34:56Z,42.805,6.029,13.2992,4.60048,2470.264,2021-7-11T06:36:12Z
2021-07-11T04:37:59Z,42.805,6.029,13.2996,4.60072,2470.25,2021-7-11T06:39:15Z
2021-07-11T04:41:03Z,42.805,6.029,13.2993,4.60059,2470.264,2021-7-11T06:42:18Z
2021-07-11T04:44:06Z,42.805,6.029,13.2993,4.60059,2470.25,2021-7-11T06:45:21Z
2021-07-11T04:47:09Z,42.805,6.029,13.2991,4.60049,2470.264,2021-7-11T06:48:24Z
2021-07-11T04:50:12Z,42.805,6.029,13.2990,4.60046,2470.287,2021-7-11T06:51:28Z
2021-07-11T04:53:15Z,42.805,6.029,13.2990,4.60075,2470.273,2021-7-11T06:54:31Z
2021-07-11T04:56:18Z,42.805,6.029,13.2995,4.60069,2470.25,2021-7-11T06:57:34Z
2021-07-11T04:59:21Z,42.805,6.029,13.2994,4.60041,2470.273,2021-7-11T07:00:37Z
2021-07-11T05:02:24Z,42.805,6.029,13.2993,4.60079,2470.25,2021-7-11T07:03:40Z
2021-07-11T05:05:28Z,42.805,6.029,13.2990,4.60082,2470.273,2021-7-11T07:06:43Z
2021-07-11T05:08:31Z,42.805,6.029,13.2995,4.60081,2470.287,2021-7-11T07:09:46Z
2021-07-11T05:11:34Z,42.805,6.029,13.2999,4.60102,2470.31,2021-7-11T07:12:49Z
2021-07-11T05:14:37Z,42.805,6.029,13.3014,4.60033,2470.25,2021-7-11T07:15:52Z
2021-07-11T05:17:40Z,42.805,6.029,13.3019,4.60040,2470.287,2021-7-11T07:18:56Z
2021-07-11T05:20:43Z,42.805,6.029,13.3032,4.60030,2470.25,2021-7-11T07:21:59Z
2021-07-11T05:23:46Z,42.805,6.029,13.3036,4.60033,2470.31,2021-7-11T07:25:02Z
2021-07-11T05:26:49Z,42.805,6.029,13.3019,4.60040,2470.31,2021-7-11T07:28:05Z
2021-07-11T05:29:53Z,42.805,6.029,13.3017,4.60025,2470.31,2021-7-11T07:31:08Z
2021-07-11T05:32:56Z,42.805,6.029,13.3014,4.60027,2470.32,2021-7-11T07:34:11Z
2021-07-11T05:35:59Z,42.805,6.029,13.3010,4.60017,2470.297,2021-7-11T07:37:14Z
2021-07-11T05:39:02Z,42.805,6.029,13.3004,4.60024,2470.287,2021-7-11T07:40:18Z
2021-07-11T05:42:05Z,42.805,6.029,13.3004,4.60038,2470.343,2021-7-11T07:43:21Z
2021-07-11T05:45:08Z,42.805,6.029,13.3009,4.60057,2470.297,2021-7-11T07:46:24Z
2021-07-11T05:48:11Z,42.805,6.029,13.3017,4.60072,2470.32,2021-7-11T07:49:27Z
2021-07-11T05:51:14Z,42.805,6.029,13.3020,4.60061,2470.334,2021-7-11T07:52:30Z
2021-07-11T05:54:18Z,42.805,6.029,13.3019,4.60067,2470.31,2021-7-11T07:55:33Z
2021-07-11T05:57:21Z,42.805,6.029,13.3011,4.60089,2470.31,2021-7-11T07:58:36Z
2021-07-11T06:00:24Z,42.805,6.029,13.3016,4.60094,2470.32,2021-7-11T08:01:39Z
2021-07-11T06:03:27Z,42.805,6.029,13.3011,4.60089,2470.32,2021-7-11T08:04:42Z
2021-07-11T06:06:30Z,42.805,6.029,13.3014,4.60073,2470.297,2021-7-11T08:07:46Z
2021-07-11T06:09:33Z,42.805,6.029,13.3021,4.60067,2470.297,2021-7-11T08:10:49Z
2021-07-11T06:12:36Z,42.805,6.029,13.3010,4.60061,2470.31,2021-7-11T08:13:52Z
2021-07-11T06:15:39Z,42.805,6.029,13.3004,4.60051,2470.334,2021-7-11T08:16:55Z
2021-07-11T06:18:42Z,42.805,6.029,13.3007,4.60063,2470.31,2021-7-11T08:19:58Z
2021-07-11T06:21:46Z,42.805,6.029,13.3014,4.60059,2470.32,2021-7-11T08:23:01Z
2021-07-11T06:24:49Z,42.805,6.029,13.3021,4.60076,2470.334,2021-7-11T08:26:04Z
2021-07-11T06:27:52Z,42.805,6.029,13.3029,4.60084,2470.334,2021-7-11T08:29:07Z
2021-07-11T06:30:55Z,42.805,6.029,13.3030,4.60087,2470.357,2021-7-11T08:32:11Z
2021-07-11T06:33:58Z,42.805,6.029,13.3031,4.60089,2470.357,2021-7-11T08:35:14Z
2021-07-11T06:37:01Z,42.805,6.029,13.3044,4.60084,2470.297,2021-7-11T08:38:17Z
2021-07-11T06:40:04Z,42.805,6.029,13.3072,4.60079,2470.357,2021-7-11T08:41:20Z
2021-07-11T06:43:07Z,42.805,6.029,13.3070,4.60073,2470.334,2021-7-11T08:44:23Z
2021-07-11T06:46:11Z,42.805,6.029,13.3062,4.60059,2470.334,2021-7-11T08:47:26Z
2021-07-11T06:49:14Z,42.805,6.029,13.3061,4.60047,2470.32,2021-7-11T08:50:29Z
2021-07-11T06:52:17Z,42.805,6.029,13.3064,4.60044,2470.357,2021-7-11T08:53:32Z
2021-07-11T06:55:20Z,42.805,6.029,13.3064,4.60046,2470.343,2021-7-11T08:56:36Z
2021-07-11T06:58:23Z,42.805,6.029,13.3066,4.60049,2470.32,2021-7-11T08:59:39Z
2021-07-11T07:01:26Z,42.805,6.029,13.3065,4.60062,2470.334,2021-7-11T09:02:42Z
2021-07-11T07:04:29Z,42.805,6.029,13.3060,4.60032,2470.334,2021-7-11T09:05:45Z
2021-07-11T07:07:32Z,42.805,6.029,13.3065,4.60025,2470.357,2021-7-11T09:08:48Z
2021-07-11T07:10:36Z,42.805,6.029,13.3073,4.60033,2470.357,2021-7-11T09:11:51Z
2021-07-11T07:13:39Z,42.805,6.029,13.3058,4.60081,2470.334,2021-7-11T09:14:54Z
2021-07-11T07:16:42Z,42.805,6.029,13.3062,4.60058,2470.32,2021-7-11T09:17:57Z
2021-07-11T07:19:45Z,42.805,6.029,13.3043,4.60059,2470.32,2021-7-11T09:21:01Z
2021-07-11T07:22:48Z,42.805,6.029,13.3049,4.60036,2470.366,2021-7-11T09:24:04Z
2021-07-11T07:25:51Z,42.805,6.029,13.3030,4.60078,2470.357,2021-7-11T09:27:07Z
2021-07-11T07:28:54Z,42.805,6.029,13.3027,4.60039,2470.357,2021-7-11T09:30:10Z
2021-07-11T07:31:57Z,42.805,6.029,13.3039,4.60029,2470.334,2021-7-11T09:33:13Z
2021-07-11T07:35:01Z,42.805,6.029,13.3026,4.60047,2470.343,2021-7-11T09:36:16Z
2021-07-11T07:38:04Z,42.805,6.029,13.3032,4.60049,2470.357,2021-7-11T09:39:19Z
2021-07-11T07:41:07Z,42.805,6.029,13.3046,4.60041,2470.371,2021-7-11T09:42:22Z
2021-07-11T07:44:10Z,42.805,6.029,13.3066,4.60035,2470.357,2021-7-11T09:45:26Z
2021-07-11T07:47:13Z,42.805,6.029,13.3079,4.60032,2470.366,2021-7-11T09:48:29Z
2021-07-11T07:50:16Z,42.805,6.029,13.3069,4.60036,2470.366,2021-7-11T09:51:32Z
2021-07-11T07:53:19Z,42.805,6.029,13.3061,4.60039,2470.413,2021-7-11T09:54:35Z
2021-07-11T07:56:22Z,42.805,6.029,13.3042,4.60038,2470.334,2021-7-11T09:57:38Z
2021-07-11T07:59:26Z,42.805,6.029,13.3032,4.60052,2470.371,2021-7-11T10:00:41Z
2021-07-11T08:02:29Z,42.805,6.029,13.3027,4.60046,2470.357,2021-7-11T10:03:44Z
2021-07-11T08:05:32Z,42.805,6.029,13.3024,4.60038,2470.343,2021-7-11T10:06:47Z
2021-07-11T08:08:35Z,42.805,6.029,13.3029,4.60051,2470.357,2021-7-11T10:09:51Z
2021-07-11T08:11:38Z,42.805,6.029,13.3021,4.60079,2470.334,2021-7-11T10:12:54Z
2021-07-11T08:14:41Z,42.805,6.029,13.3031,4.60055,2470.334,2021-7-11T10:15:57Z
2021-07-11T08:17:44Z,42.805,6.029,13.3041,4.60049,2470.343,2021-7-11T10:19:00Z
2021-07-11T08:20:47Z,42.805,6.029,13.3040,4.60025,2470.371,2021-7-11T10:22:03Z
2021-07-11T08:23:51Z,42.805,6.029,13.3039,4.60039,2470.334,2021-7-11T10:25:06Z
2021-07-11T08:26:54Z,42.805,6.029,13.3036,4.60045,2470.343,2021-7-11T10:28:09Z
2021-07-11T08:29:57Z,42.805,6.029,13.3030,4.60052,2470.38,2021-7-11T10:31:12Z
2021-07-11T08:33:00Z,42.805,6.029,13.3026,4.60020,2470.371,2021-7-11T10:34:16Z
2021-07-11T08:36:03Z,42.805,6.029,13.3023,4.60032,2470.32,2021-7-11T10:37:19Z
2021-07-11T08:39:06Z,42.805,6.029,13.3029,4.60033,2470.273,2021-7-11T10:40:22Z
2021-07-11T08:42:09Z,42.805,6.029,13.3020,4.60058,2470.334,2021-7-11T10:43:25Z
2021-07-11T08:45:12Z,42.805,6.029,13.3013,4.60053,2470.334,2021-7-11T10:46:28Z
2021-07-11T08:48:16Z,42.805,6.029,13.3015,4.60037,2470.334,2021-7-11T10:49:31Z
2021-07-11T08:51:19Z,42.805,6.029,13.3012,4.60052,2470.334,2021-7-11T10:52:34Z
2021-07-11T08:54:22Z,42.805,6.029,13.3006,4.60067,2470.334,2021-7-11T10:55:37Z
2021-07-11T08:57:25Z,42.805,6.029,13.3012,4.60075,2470.32,2021-7-11T10:58:41Z
2021-07-11T09:00:28Z,42.805,6.029,13.3014,4.60050,2470.343,2021-7-11T11:01:44Z
2021-07-11T09:03:31Z,42.805,6.029,13.3012,4.60032,2470.32,2021-7-11T11:04:47Z
2021-07-11T09:06:34Z,42.805,6.029,13.3006,4.60057,2470.334,2021-7-11T11:07:50Z
2021-07-11T09:09:37Z,42.805,6.029,13.3014,4.60049,2470.32,2021-7-11T11:10:53Z
2021-07-11T09:12:41Z,42.805,6.029,13.3021,4.60042,2470.334,2021-7-11T11:13:56Z
2021-07-11T09:15:44Z,42.805,6.029,13.3014,4.60048,2470.31,2021-7-11T11:16:59Z
2021-07-11T09:18:47Z,42.805,6.029,13.3021,4.60042,2470.334,2021-7-11T11:20:02Z
2021-07-11T09:21:50Z,42.805,6.029,13.3016,4.60039,2470.32,2021-7-11T11:23:06Z
2021-07-11T09:24:53Z,42.805,6.029,13.3024,4.60053,2470.32,2021-7-11T11:26:09Z
2021-07-11T09:27:56Z,42.805,6.029,13.3036,4.60053,2470.357,2021-7-11T11:29:12Z
2021-07-11T09:30:59Z,42.805,6.029,13.3060,4.60047,2470.297,2021-7-11T11:32:15Z
2021-07-11T09:34:02Z,42.805,6.029,13.3061,4.60036,2470.273,2021-7-11T11:35:18Z
2021-07-11T09:37:06Z,42.805,6.029,13.3031,4.60046,2470.31,2021-7-11T11:38:21Z
2021-07-11T09:40:09Z,42.805,6.029,13.3032,4.60050,2470.31,2021-7-11T11:41:24Z
2021-07-11T09:43:12Z,42.805,6.029,13.3053,4.60047,2470.32,2021-7-11T11:44:27Z
2021-07-11T09:46:15Z,42.805,6.029,13.3048,4.60039,2470.31,2021-7-11T11:47:31Z
2021-07-11T09:49:18Z,42.805,6.029,13.3037,4.60044,2470.31,2021-7-11T11:50:34Z
2021-07-11T09:52:21Z,42.805,6.029,13.3028,4.60055,2470.273,2021-7-11T11:53:37Z
2021-07-11T09:55:24Z,42.805,6.029,13.3028,4.60057,2470.297,2021-7-11T11:56:40Z
2021-07-11T09:58:27Z,42.805,6.029,13.3015,4.60052,2470.334,2021-7-11T11:59:43Z
2021-07-11T10:01:31Z,42.805,6.029,13.3013,4.60046,2470.297,2021-7-11T12:02:46Z
2021-07-11T10:04:34Z,42.805,6.029,13.3021,4.60063,2470.31,2021-7-11T12:05:49Z
2021-07-11T10:07:37Z,42.805,6.029,13.3015,4.60041,2470.31,2021-7-11T12:08:52Z
2021-07-11T10:10:40Z,42.805,6.029,13.3024,4.60033,2470.287,2021-7-11T12:11:56Z
2021-07-11T10:13:43Z,42.805,6.029,13.3026,4.60043,2470.297,2021-7-11T12:14:59Z
2021-07-11T10:16:46Z,42.805,6.029,13.3032,4.60071,2470.297,2021-7-11T12:18:02Z
2021-07-11T10:19:49Z,42.805,6.029,13.3034,4.60051,2470.297,2021-7-11T12:21:05Z
2021-07-11T10:22:52Z,42.805,6.029,13.3044,4.60064,2470.31,2021-7-11T12:24:08Z
2021-07-11T10:25:56Z,42.805,6.029,13.3027,4.60039,2470.287,2021-7-11T12:27:11Z
2021-07-11T10:28:59Z,42.805,6.029,13.3028,4.60057,2470.273,2021-7-11T12:30:14Z
2021-07-11T10:32:02Z,42.805,6.029,13.3018,4.60053,2470.287,2021-7-11T12:33:17Z
2021-07-11T10:35:05Z,42.805,6.029,13.3027,4.60052,2470.287,2021-7-11T12:36:21Z
2021-07-11T10:38:08Z,42.805,6.029,13.3007,4.60048,2470.287,2021-7-11T12:39:24Z
2021-07-11T10:41:11Z,42.805,6.029,13.3021,4.60050,2470.31,2021-7-11T12:42:27Z
2021-07-11T10:44:14Z,42.805,6.029,13.3024,4.60044,2470.25,2021-7-11T12:45:30Z
2021-07-11T10:47:18Z,42.805,6.029,13.3038,4.60036,2470.25,2021-7-11T12:48:33Z
2021-07-11T10:50:21Z,42.805,6.029,13.3034,4.60093,2470.264,2021-7-11T12:51:36Z
2021-07-11T10:53:24Z,42.805,6.029,13.3048,4.60029,2470.264,2021-7-11T12:54:39Z
2021-07-11T10:56:27Z,42.805,6.029,13.3063,4.60023,2470.287,2021-7-11T12:57:43Z
2021-07-11T10:59:30Z,42.805,6.029,13.3041,4.60028,2470.287,2021-7-11T13:00:46Z
2021-07-11T11:02:33Z,42.805,6.029,13.3028,4.60057,2470.264,2021-7-11T13:03:49Z
2021-07-11T11:05:36Z,42.805,6.029,13.3031,4.60039,2470.287,2021-7-11T13:06:52Z
2021-07-11T11:08:39Z,42.805,6.029,13.3041,4.60041,2470.287,2021-7-11T13:09:55Z
2021-07-11T11:11:43Z,42.805,6.029,13.3043,4.60031,2470.287,2021-7-11T13:12:58Z
2021-07-11T11:14:46Z,42.805,6.029,13.3038,4.60020,2470.287,2021-7-11T13:16:01Z
2021-07-11T11:17:49Z,42.805,6.029,13.3025,4.60028,2470.287,2021-7-11T13:19:04Z
2021-07-11T11:20:52Z,42.805,6.029,13.3038,4.60039,2470.264,2021-7-11T13:22:08Z
2021-07-11T11:23:55Z,42.805,6.029,13.3027,4.60076,2470.264,2021-7-11T13:25:11Z
2021-07-11T11:26:58Z,42.805,6.029,13.3048,4.60044,2470.24,2021-7-11T13:28:14Z
2021-07-11T11:30:01Z,42.805,6.029,13.3037,4.60034,2470.24,2021-7-11T13:31:17Z
2021-07-11T11:33:04Z,42.805,6.029,13.3046,4.60052,2470.264,2021-7-11T13:34:20Z
2021-07-11T11:36:08Z,42.805,6.029,13.3069,4.60049,2470.24,2021-7-11T13:37:23Z
2021-07-11T11:39:11Z,42.805,6.029,13.3027,4.60029,2470.227,2021-7-11T13:40:26Z
2021-07-11T11:42:14Z,42.805,6.029,13.3035,4.60039,2470.25,2021-7-11T13:43:29Z
2021-07-11T11:45:17Z,42.805,6.029,13.3047,4.60029,2470.264,2021-7-11T13:46:33Z
2021-07-11T11:48:20Z,42.805,6.029,13.3039,4.60019,2470.24,2021-7-11T13:49:36Z
2021-07-11T11:51:23Z,42.805,6.029,13.3044,4.60025,2470.25,2021-7-11T13:52:39Z
2021-07-11T11:54:26Z,42.805,6.029,13.3066,4.60029,2470.227,2021-7-11T13:55:42Z
2021-07-11T11:57:29Z,42.805,6.029,13.3025,4.60031,2470.194,2021-7-11T13:58:45Z
2021-07-11T12:00:33Z,42.805,6.029,13.3033,4.60026,2470.25,2021-7-11T14:01:48Z
2021-07-11T12:03:36Z,42.805,6.029,13.3053,4.60037,2470.217,2021-7-11T14:04:51Z
2021-07-11T12:06:39Z,42.805,6.029,13.3040,4.60036,2470.24,2021-7-11T14:07:55Z
2021-07-11T12:09:42Z,42.805,6.029,13.3043,4.60029,2470.24,2021-7-11T14:10:58Z
2021-07-11T12:12:45Z,42.805,6.029,13.3066,4.60046,2470.203,2021-7-11T14:14:01Z
2021-07-11T12:15:48Z,42.805,6.029,13.3063,4.60037,2470.24,2021-7-11T14:17:04Z
2021-07-11T12:18:51Z,42.805,6.029,13.3041,4.60028,2470.25,2021-7-11T14:20:07Z
2021-07-11T12:21:55Z,42.805,6.029,13.3034,4.60031,2470.194,2021-7-11T14:23:10Z
2021-07-11T12:24:58Z,42.805,6.029,13.3034,4.60036,2470.24,2021-7-11T14:26:13Z
2021-07-11T12:28:01Z,42.805,6.029,13.3036,4.60032,2470.217,2021-7-11T14:29:16Z
2021-07-11T12:31:04Z,42.805,6.029,13.3048,4.60029,2470.227,2021-7-11T14:32:20Z
2021-07-11T12:34:07Z,42.805,6.029,13.3041,4.60034,2470.24,2021-7-11T14:35:23Z
2021-07-11T12:37:10Z,42.805,6.029,13.3053,4.60041,2470.217,2021-7-11T14:38:26Z
2021-07-11T12:40:13Z,42.805,6.029,13.3064,4.60046,2470.203,2021-7-11T14:41:29Z
2021-07-11T12:43:16Z,42.805,6.029,13.3061,4.60026,2470.18,2021-7-11T14:44:32Z
2021-07-11T12:46:20Z,42.805,6.029,13.3048,4.60038,2470.24,2021-7-11T14:47:35Z
2021-07-11T12:49:23Z,42.805,6.029,13.3052,4.60035,2470.24,2021-7-11T14:50:38Z
2021-07-11T12:52:26Z,42.805,6.029,13.3054,4.60041,2470.217,2021-7-11T14:53:41Z
2021-07-11T12:55:29Z,42.805,6.029,13.3038,4.60029,2470.217,2021-7-11T14:56:45Z
2021-07-11T12:58:32Z,42.805,6.029,13.3034,4.60031,2470.217,2021-7-11T14:59:48Z
2021-07-11T13:01:35Z,42.805,6.029,13.3042,4.60043,2470.24,2021-7-11T15:02:51Z
2021-07-11T13:04:38Z,42.805,6.029,13.3042,4.60045,2470.18,2021-7-11T15:05:54Z
2021-07-11T13:07:41Z,42.805,6.029,13.3078,4.60052,2470.18,2021-7-11T15:08:57Z
2021-07-11T13:10:45Z,42.805,6.029,13.3049,4.60045,2470.194,2021-7-11T15:12:00Z
2021-07-11T13:13:48Z,42.805,6.029,13.3054,4.60035,2470.217,2021-7-11T15:15:03Z
2021-07-11T13:16:51Z,42.805,6.029,13.3070,4.60029,2470.24,2021-7-11T15:18:06Z
2021-07-11T13:19:54Z,42.805,6.029,13.3054,4.60039,2470.194,2021-7-11T15:21:10Z
2021-07-11T13:22:57Z,42.805,6.029,13.3067,4.60044,2470.217,2021-7-11T15:24:13Z
2021-07-11T13:26:00Z,42.805,6.029,13.3062,4.60054,2470.24,2021-7-11T15:27:16Z
2021-07-11T13:29:03Z,42.805,6.029,13.3081,4.60045,2470.217,2021-7-11T15:30:19Z
2021-07-11T13:32:06Z,42.805,6.029,13.3043,4.60037,2470.203,2021-7-11T15:33:22Z
2021-07-11T13:35:10Z,42.805,6.029,13.3043,4.60035,2470.203,2021-7-11T15:36:25Z
2021-07-11T13:38:13Z,42.805,6.029,13.3039,4.60049,2470.171,2021-7-11T15:39:28Z
2021-07-11T13:41:16Z,42.805,6.029,13.3068,4.60062,2470.194,2021-7-11T15:42:31Z
2021-07-11T13:44:19Z,42.805,6.029,13.3061,4.60042,2470.217,2021-7-11T15:45:35Z
2021-07-11T13:47:22Z,42.805,6.029,13.3066,4.60032,2470.147,2021-7-11T15:48:38Z
2021-07-11T13:50:25Z,42.805,6.029,13.3065,4.60042,2470.194,2021-7-11T15:51:41Z
2021-07-11T13:53:28Z,42.805,6.029,13.3051,4.60049,2470.194,2021-7-11T15:54:44Z
2021-07-11T13:56:31Z,42.805,6.029,13.3066,4.60039,2470.194,2021-7-11T15:57:47Z
2021-07-11T13:59:35Z,42.805,6.029,13.3070,4.60033,2470.217,2021-7-11T16:00:50Z
2021-07-11T14:02:38Z,42.805,6.029,13.3048,4.60038,2470.194,2021-7-11T16:03:53Z
2021-07-11T14:05:41Z,42.805,6.029,13.3041,4.60032,2470.194,2021-7-11T16:06:57Z
2021-07-11T14:08:44Z,42.805,6.029,13.3040,4.60037,2470.194,2021-7-11T16:10:00Z
2021-07-11T14:11:47Z,42.805,6.029,13.3049,4.60054,2470.194,2021-7-11T16:13:03Z
2021-07-11T14:14:50Z,42.805,6.029,13.3039,4.60057,2470.18,2021-7-11T16:16:06Z
2021-07-11T14:17:53Z,42.805,6.029,13.3003,4.60061,2470.203,2021-7-11T16:19:09Z
2021-07-11T14:20:56Z,42.805,6.029,13.3015,4.60075,2470.231,2021-7-11T16:22:12Z
2021-07-11T14:24:00Z,42.805,6.029,13.2998,4.60059,2470.18,2021-7-11T16:25:15Z
2021-07-11T14:27:03Z,42.805,6.029,13.2992,4.60094,2470.156,2021-7-11T16:28:18Z
2021-07-11T14:30:06Z,42.805,6.029,13.2991,4.60099,2470.194,2021-7-11T16:31:22Z
2021-07-11T14:33:09Z,42.805,6.029,13.2991,4.60054,2470.18,2021-7-11T16:34:25Z
2021-07-11T14:36:12Z,42.805,6.029,13.2993,4.60056,2470.203,2021-7-11T16:37:28Z
2021-07-11T14:39:15Z,42.805,6.029,13.2991,4.60058,2470.18,2021-7-11T16:40:31Z
2021-07-11T14:42:18Z,42.805,6.029,13.2994,4.60054,2470.18,2021-7-11T16:43:34Z
2021-07-11T14:45:22Z,42.805,6.029,13.2990,4.60053,2470.194,2021-7-11T16:46:37Z
2021-07-11T14:48:25Z,42.805,6.029,13.2990,4.60036,2470.217,2021-7-11T16:49:40Z
2021-07-11T14:51:28Z,42.805,6.029,13.2990,4.60037,2470.194,2021-7-11T16:52:43Z
2021-07-11T14:54:31Z,42.805,6.029,13.2996,4.60021,2470.194,2021-7-11T16:55:47Z
2021-07-11T14:57:34Z,42.805,6.029,13.2991,4.60025,2470.217,2021-7-11T16:58:50Z
2021-07-11T15:00:37Z,42.805,6.029,13.2990,4.60021,2470.203,2021-7-11T17:01:53Z
2021-07-11T15:03:40Z,42.805,6.029,13.2991,4.60028,2470.203,2021-7-11T17:04:56Z
2021-07-11T15:06:43Z,42.805,6.029,13.2992,4.60026,2470.217,2021-7-11T17:07:59Z
2021-07-11T15:09:47Z,42.805,6.029,13.2993,4.60018,2470.18,2021-7-11T17:11:02Z
2021-07-11T15:12:50Z,42.805,6.029,13.2993,4.60021,2470.24,2021-7-11T17:14:05Z